[[{"header":{"parameterUnit":"m.s-1","parameterCategory":1,"la1":30.2991,"la2":30.254,"lo1":-89.0895,"lo2":-89.0444,"dy":0.0017,"dx":0.0017,"nx":28,"ny":28,"refTime":"2025-11-21T09:00:00:Z","depth":0,"parameterNumber":2,"parameterNumberName":"U-component_of_WINDS"},"data":[0,0,0,0,0,0,0,0,0,0,0,0,0,0,0,0,0,0,0,0,0,0,0,0,0,0,0,0,0,0,0,0,0,0,0,0,0,0,0,0,0,0,0,0,0,0,0,0,0,0,0,0,0,0,0,0,0,0,-2.8834,-2.8834,0,-2.8822,-2.8822,-2.8822,-2.8743,-2.8741,-2.8739,-2.8738,-2.8726,-2.8727,-2.8729,0,0,0,0,0,0,0,0,0,0,0,0,0,-2.8791,-2.8792,-2.8834,-2.8834,-2.8834,-2.8822,-2.8822,-2.8821,-2.8744,-2.8741,-2.8739,-2.8737,-2.8725,-2.8727,-2.8729,0,0,0,0,0,0,0,0,0,0,0,0,0,-2.8797,-2.8792,-2.8834,-2.8793,-2.879,-2.8822,-2.8822,-2.8821,-2.8744,-2.8741,-2.8738,-2.8736,-2.8725,-2.8727,-2.8729,-2.88,0,0,-2.8736,-2.8737,0,0,0,0,0,0,0,0,-2.8797,-2.8799,-2.88,-2.8796,-2.8792,-2.8781,-2.8802,-2.8814,-2.8745,-2.8761,-2.8738,-2.8734,-2.8747,-2.8747,-2.8751,-2.8799,-2.8799,-2.8736,-2.8737,-2.8738,-2.8739,0,0,0,0,0,0,0,-2.8797,-2.8799,-2.8829,-2.88,-2.8795,-2.8776,-2.8774,-2.8804,-2.877,-2.876,-2.8754,-2.8754,-2.8744,-2.8749,-2.875,-2.8798,-2.8736,-2.8738,-2.8739,-2.874,-2.8904,-2.8907,0,0,0,0,0,0,-2.8802,-2.8799,-2.883,-2.8829,-2.8788,-2.8779,-2.8777,-2.8788,-2.877,-2.8764,-2.8756,-2.875,-2.8746,-2.8747,-2.8749,-2.883,-2.8738,-2.874,-2.8741,-2.8901,-2.8905,-2.8908,0,0,0,0,0,0,-2.8801,-2.8805,-2.883,-2.8812,-2.8814,-2.8783,-2.8796,-2.8789,-2.8793,-2.8767,-2.876,-2.8767,-2.8744,-2.8746,-2.8788,-2.8829,-2.8741,-2.8743,-2.8897,-2.8902,-2.8906,-2.8993,0,0,0,0,0,0,-2.88,-2.8806,-2.8832,-2.8814,-2.8815,-2.8869,-2.8798,-2.8791,-2.8797,-2.8789,-2.8775,-2.877,-2.8742,-2.8785,-2.879,-2.883,-2.8745,-2.8894,-2.89,-2.8905,-2.8986,-2.9,-2.9012,0,0,0,0,0,-2.8799,-2.8857,-2.8833,-2.8837,-2.8847,-2.8871,-2.8872,-2.8838,-2.8801,-2.8827,-2.881,-2.8771,-2.8824,-2.879,-2.8795,-2.8836,-2.8891,-2.8898,-2.8905,-2.8981,-2.8997,-2.9011,0,0,0,0,0,0,-2.888,-2.8854,-2.8827,-2.8881,-2.8879,-2.8858,-2.8889,-2.8857,-2.8865,-2.8858,-2.8815,-2.8813,-2.8861,-2.8853,-2.8815,-2.8904,-2.8851,-2.8859,-2.8907,-2.8922,-2.8935,-2.8935,-2.8747,0,0,0,0,0,-2.8905,-2.8926,-2.8901,-2.8951,-2.8951,-2.8921,-2.893,-2.8904,-2.89,-2.8899,-2.8885,-2.8883,-2.8899,-2.8911,-2.8924,-2.8986,-2.8981,-2.9017,-2.9029,-2.904,-2.9047,-2.9079,-2.9094,-2.8931,-2.8931,-2.893,0,0,-2.8955,-2.8943,-2.8959,-2.8967,-2.8962,-2.8985,-2.8921,-2.8948,-2.8964,-2.8903,-2.8941,-2.8931,-2.8926,-2.8978,-2.9,-2.8973,-2.9092,-2.9049,-2.9057,-2.9058,-2.9087,-2.9103,-2.9117,-2.8935,-2.8934,-2.8934,0,0,-2.9057,-2.9051,-2.9091,-2.9088,-2.9082,-2.9061,-2.9071,-2.9055,-2.9046,-2.9084,-2.9038,-2.9058,-2.9087,-2.9085,-2.9088,-2.9192,-2.9156,-2.9197,-2.9263,-2.9294,-2.9307,-2.9318,-2.9355,-2.9368,-2.9205,-2.9205,-2.9205,0,-2.912,-2.9152,-2.9116,-2.9146,-2.9151,-2.9097,-2.9138,-2.9137,-2.9136,-2.914,-2.911,-2.9145,-2.9138,-2.9188,-2.9214,-2.9218,-2.9228,-2.9198,-2.9308,-2.9319,-2.9329,-2.9363,-2.9377,-2.921,-2.921,-2.9209,-2.9209,0,-2.923,-2.9253,-2.9287,-2.9287,-2.9296,-2.9331,-2.93,-2.9314,-2.9288,-2.9271,-2.931,-2.93,-2.9311,-2.9321,-2.9296,-2.9368,-2.9351,-2.9316,-2.9261,-2.935,-2.9381,-2.9394,-2.9217,-2.9216,-2.9214,-2.9213,0,0,-2.9381,-2.9362,-2.9374,-2.9374,-2.9364,-2.9381,-2.9415,-2.9425,-2.9437,-2.9439,-2.9465,-2.9491,-2.9458,-2.9462,-2.9436,-2.9464,-2.9546,-2.9424,-2.9424,-2.9446,-2.9624,-2.965,-2.9666,-2.9523,-2.9525,-2.9527,-2.9624,0,-2.9479,-2.9534,-2.9503,-2.9562,-2.9583,-2.9533,-2.9562,-2.956,-2.9545,-2.9561,-2.9546,-2.9564,-2.952,-2.9521,-2.9547,-2.9531,-2.9581,-2.9523,-2.9547,-2.9548,-2.9548,-2.9683,-2.971,-2.9802,-2.9637,-2.9639,-2.964,0,-2.9599,-2.9606,-2.9668,-2.9654,-2.9662,-2.9688,-2.9695,-2.9711,-2.9708,-2.9695,-2.97,-2.9668,-2.97,-2.9647,-2.9691,-2.9652,-2.9661,-2.9654,-2.9657,-2.9657,-2.9598,-2.9685,-2.9831,-2.9844,-2.9659,-2.9658,-2.9656,0,-2.9703,-2.9727,-2.9767,-2.9768,-2.9754,-2.9773,-2.9768,-2.9762,-2.977,-2.9776,-2.9781,-2.9792,-2.9797,-2.9806,-2.9778,-2.9742,-2.9825,-2.977,-2.9815,-2.9816,-2.9833,-2.9832,-2.9982,-2.9841,-2.9841,-2.9841,-2.9841,0,-2.9814,-2.9853,-2.9813,-2.9838,-2.9881,-2.9845,-2.9889,-2.9878,-2.9873,-2.9895,-2.9853,-2.9874,-2.9836,-2.9854,-2.9833,-2.9872,-2.9875,-2.9865,-2.9859,-2.9868,-2.9869,-2.9872,-2.9864,-2.9844,-2.9844,-2.9843,-2.9842,0,-2.9935,-2.991,-2.995,-2.9933,-2.993,-2.9962,-2.9948,-2.997,-2.9953,-2.9982,-2.9986,-2.996,-2.9979,-2.9952,-2.9968,-2.9954,-3.0007,-2.9992,-3.0008,-3.0003,-3.0049,-3.0045,-3.0204,-3.0223,-3.0072,-3.0073,-3.0075,0,-3.0007,-3.0036,-3.0023,-3.0034,-3.0031,-3.0051,-3.0059,-3.0025,-3.0036,-3.0034,-3.0057,-3.0072,-3.0082,-3.0115,-3.0097,-3.011,-3.0093,-3.0148,-3.0095,-3.0103,-3.0093,-3.0091,-3.0093,-3.0159,-3.0161,-3.0162,-3.0163,0,-3.0137,-3.0123,-3.0136,-3.0146,-3.0157,-3.0163,-3.0165,-3.0178,-3.0142,-3.0156,-3.0175,-3.0183,-3.02,-3.0215,-3.0223,-3.0218,-3.0185,-3.0181,-3.0192,-3.0201,-3.0208,-3.0204,-3.0037,-3.0177,-3.0175,-3.0174,-3.0174,-3.0173,-3.0235,-3.0258,-3.0252,-3.0269,-3.0267,-3.0271,-3.0291,-3.0277,-3.0292,-3.0303,-3.0283,-3.0306,-3.0303,-3.031,-3.0309,-3.0327,-3.0303,-3.0319,-3.0323,-3.0327,-3.0333,-3.0207,-3.0328,-3.0328,-3.0328,-3.0327,-3.0327,0,-3.0361,-3.0355,-3.0371,-3.0376,-3.0389,-3.0358,-3.0359,-3.0372,-3.0394,-3.0393,-3.0404,-3.0426,-3.0441,-3.0426,-3.0438,-3.0456,-3.0441,-3.046,-3.0457,-3.0457,-3.0355,-3.0343,-3.0472,-3.0472,-3.0472,-3.0472,-3.0472,-3.0472,-3.0428,-3.0466,-3.0452,-3.049,-3.0483,-3.0506,-3.051,-3.0513,-3.0512,-3.0538,-3.0551,-3.0541,-3.0534,-3.0546,-3.0559,-3.0554,-3.056,-3.0584,-3.0574,-3.0478,-3.0464,-3.045,-3.044,-3.0586,-3.0586,-3.0674,-3.0675,-3.0676]},{"header":{"parameterUnit":"m.s-1","parameterCategory":1,"la1":30.2991,"la2":30.254,"lo1":-89.0895,"lo2":-89.0444,"dy":0.0017,"dx":0.0017,"nx":28,"ny":28,"refTime":"2025-11-21T09:00:00:Z","depth":0,"parameterNumber":3,"parameterNumberName":"V-component_of_WINDS"},"data":[0,0,0,0,0,0,0,0,0,0,0,0,0,0,0,0,0,0,0,0,0,0,0,0,0,0,0,0,0,0,0,0,0,0,0,0,0,0,0,0,0,0,0,0,0,0,0,0,0,0,0,0,0,0,0,0,0,0,2.1522,2.1522,0,2.1583,2.1583,2.1584,2.1571,2.157,2.1569,2.1568,2.1632,2.1634,2.1637,0,0,0,0,0,0,0,0,0,0,0,0,0,2.1397,2.1399,2.1522,2.1522,2.1523,2.1583,2.1584,2.1584,2.1571,2.157,2.1569,2.1567,2.1631,2.1634,2.1637,0,0,0,0,0,0,0,0,0,0,0,0,0,2.1454,2.14,2.1521,2.1524,2.1525,2.1583,2.1584,2.1585,2.1572,2.157,2.1568,2.1567,2.163,2.1634,2.1638,2.1697,0,0,2.165,2.1652,0,0,0,0,0,0,0,0,2.145,2.1458,2.1523,2.1524,2.1525,2.1568,2.1563,2.1622,2.1572,2.1554,2.1568,2.1566,2.1612,2.1617,2.1632,2.17,2.1703,2.1651,2.1653,2.1655,2.1656,0,0,0,0,0,0,0,2.1446,2.1456,2.1546,2.1524,2.1525,2.1523,2.1529,2.1574,2.1592,2.1555,2.1555,2.1562,2.1612,2.1628,2.1634,2.1704,2.165,2.1654,2.1657,2.1658,2.1826,2.1828,0,0,0,0,0,0,2.1441,2.1452,2.1544,2.1548,2.1483,2.1527,2.1533,2.1556,2.1591,2.1595,2.1563,2.1561,2.1622,2.1629,2.1636,2.171,2.1655,2.1659,2.1661,2.1824,2.1827,2.1829,0,0,0,0,0,0,2.1439,2.145,2.1541,2.15,2.1511,2.153,2.1556,2.1558,2.1574,2.1597,2.16,2.1577,2.1621,2.163,2.1683,2.1712,2.1661,2.1664,2.1822,2.1825,2.1828,2.1857,0,0,0,0,0,0,2.1435,2.1449,2.1471,2.15,2.1514,2.1586,2.1557,2.156,2.1581,2.1579,2.1611,2.1614,2.1621,2.1677,2.1687,2.1717,2.1668,2.182,2.1823,2.1827,2.1853,2.186,2.1867,0,0,0,0,0,2.1431,2.1476,2.1472,2.1483,2.1541,2.1588,2.1595,2.1601,2.1584,2.1607,2.1622,2.1613,2.1707,2.1682,2.1693,2.1725,2.1818,2.1822,2.1827,2.185,2.1859,2.1866,0,0,0,0,0,0,2.1449,2.148,2.1475,2.1531,2.1557,2.1586,2.1614,2.161,2.1641,2.1638,2.1645,2.1652,2.1706,2.172,2.1692,2.1786,2.176,2.1767,2.1774,2.1783,2.1789,2.1785,2.1671,0,0,0,0,0,2.1459,2.1494,2.1519,2.1566,2.1579,2.1595,2.1615,2.1618,2.1645,2.1656,2.1675,2.1702,2.1737,2.1761,2.1795,2.1856,2.1863,2.1883,2.189,2.1895,2.1901,2.1937,2.1947,2.1844,2.1844,2.1844,0,0,2.1481,2.1502,2.1524,2.1571,2.1591,2.1628,2.1604,2.1643,2.1671,2.1662,2.1713,2.1728,2.1759,2.1816,2.1842,2.183,2.1931,2.1901,2.1905,2.1908,2.1942,2.1952,2.1961,2.1847,2.1846,2.1846,0,0,2.154,2.1559,2.1601,2.1623,2.1654,2.1664,2.1675,2.1704,2.1714,2.1765,2.176,2.1794,2.1854,2.1877,2.1897,2.1968,2.1962,2.1979,2.2013,2.2048,2.2056,2.2063,2.209,2.21,2.1985,2.1985,2.1985,0,2.1563,2.1618,2.1624,2.1664,2.1686,2.168,2.1724,2.1744,2.1785,2.1801,2.1787,2.1865,2.1885,2.1949,2.1966,2.1982,2.1995,2.1975,2.2054,2.2062,2.2069,2.2094,2.2104,2.1987,2.1987,2.1986,2.1986,0,2.1646,2.1684,2.1715,2.1755,2.178,2.1822,2.1836,2.1861,2.1862,2.1875,2.1929,2.1953,2.1993,2.2008,2.2009,2.2073,2.2065,2.2053,2.2027,2.208,2.2105,2.2115,2.199,2.1989,2.1988,2.1988,0,0,2.1716,2.1761,2.1772,2.1792,2.1827,2.1857,2.19,2.194,2.1962,2.1991,2.2028,2.2081,2.2071,2.2093,2.2097,2.2127,2.2185,2.2112,2.2112,2.2126,2.2259,2.2269,2.228,2.2181,2.2183,2.2184,2.2257,0,2.178,2.1855,2.1863,2.193,2.1967,2.1963,2.2001,2.2028,2.2041,2.2075,2.209,2.2128,2.211,2.2124,2.2154,2.2171,2.2212,2.2166,2.2217,2.2219,2.221,2.2293,2.2303,2.237,2.2266,2.2268,2.2269,0,2.1863,2.1895,2.1967,2.2,2.2015,2.2049,2.2087,2.2119,2.215,2.2158,2.2184,2.2185,2.2231,2.2204,2.2268,2.2237,2.2259,2.2271,2.2273,2.2279,2.2248,2.2302,2.2391,2.2402,2.2284,2.2283,2.2282,0,2.1909,2.1971,2.2022,2.2039,2.2077,2.2102,2.2119,2.2148,2.2173,2.2206,2.2222,2.2261,2.2282,2.2313,2.2324,2.2303,2.2389,2.2362,2.2398,2.2398,2.2417,2.2415,2.2512,2.2429,2.2429,2.2429,2.2428,0,2.1979,2.2023,2.2044,2.2075,2.2126,2.2135,2.2185,2.2202,2.2228,2.2264,2.2263,2.2297,2.231,2.2347,2.2357,2.241,2.2419,2.2428,2.243,2.2428,2.2428,2.2443,2.2439,2.2431,2.2431,2.243,2.243,0,2.2039,2.2054,2.211,2.2143,2.2153,2.2189,2.2217,2.2249,2.2263,2.2309,2.232,2.2342,2.2385,2.24,2.2452,2.2459,2.2521,2.2519,2.2511,2.2512,2.2548,2.2545,2.2658,2.2675,2.258,2.258,2.2581,0,2.2083,2.2117,2.2155,2.2179,2.2197,2.2236,2.2261,2.2273,2.2299,2.2338,2.2366,2.2409,2.2444,2.2514,2.2535,2.2575,2.2575,2.2612,2.2581,2.2579,2.2577,2.2576,2.258,2.2618,2.2619,2.262,2.262,0,2.216,2.2167,2.2202,2.2242,2.2272,2.2304,2.2335,2.2355,2.2371,2.2401,2.2446,2.2473,2.2527,2.2571,2.2613,2.2632,2.263,2.263,2.2641,2.264,2.2635,2.264,2.2528,2.2627,2.2627,2.2626,2.2626,2.2625,2.2214,2.2246,2.2278,2.2319,2.2343,2.2373,2.2405,2.2423,2.2461,2.2506,2.2511,2.2559,2.2592,2.2648,2.267,2.2709,2.2698,2.2714,2.2718,2.2722,2.2725,2.2628,2.2716,2.2716,2.2716,2.2716,2.2716,0,2.2293,2.2314,2.2352,2.2395,2.2428,2.2423,2.2458,2.2486,2.2529,2.2559,2.2594,2.2647,2.269,2.2715,2.2759,2.2785,2.2786,2.2796,2.2795,2.28,2.2731,2.2718,2.2796,2.2796,2.2796,2.2796,2.2796,2.2796,2.2338,2.2391,2.2402,2.2469,2.2489,2.2537,2.2558,2.2586,2.261,2.2669,2.2705,2.2721,2.2751,2.2797,2.2837,2.2843,2.286,2.2872,2.2878,2.2813,2.2804,2.2797,2.2785,2.2875,2.2875,2.2944,2.2944,2.2945]}]]